Regional Weather Roundup
Issued by NWS

Home | Current Version | Previous Version | Text Only | Print | Product List | Glossary On
Versions: 1 2 3 4 5 6 7 8 9 10 11 12 13 14 15 16 17 18 19 20 21 22 23 24 25 26 27 28 29 30 31 32 33 34 35 36 37 38 39 40 41 42 43 44 45 46 47 48 49 50
000
ASUS43 KFSD 241302
RWRSD

WEATHER ROUNDUP FOR SOUTH DAKOTA
NATIONAL WEATHER SERVICE SIOUX FALLS SD
800 AM CDT TUE APR 24 2018

NOTE: "FAIR" INDICATES FEW OR NO CLOUDS BELOW 12,000 FEET WITH NO
SIGNIFICANT WEATHER AND/OR OBSTRUCTIONS TO VISIBILITY.


SDZ001>005-009-010-012>017-241400-
NORTHWEST AND NORTH CENTRAL SOUTH DAKOTA

CITY           SKY/WX    TMP DP  RH WIND       PRES   REMARKS
BUFFALO          N/A     36  32  85 NW17      30.39R
FAITH            N/A     33  33 100 N16       30.41R WCI  23
MOBRIDGE       LGT SNOW  34  33  96 N8        30.35R VSB 1   WCI  27
$$

SDZ012>016-024>037-041>051-057-063-072>074-241400-
SOUTHWEST AND SOUTH CENTRAL SOUTH DAKOTA

CITY           SKY/WX    TMP DP  RH WIND       PRES   REMARKS
RAPID CTY ARPT LGT SNOW  34  31  88 N23G30    30.43R FOG     WCI  22
PIERRE         CLOUDY    39  36  89 N31G43    30.26R
CUSTER         CLOUDY    29  21  72 N8G22     30.36R WCI  21
ELLSWORTH AFB  FLURRIES  34  34 100 NW21      30.42  WCI  22
PHILIP         CLOUDY    36  36 100 N28G39    30.35R
PINE RIDGE     LGT RAIN  35  33  92 N18G26    30.40R WCI  24
SPEARFISH      LGT SNOW  32  32 100 W12       30.47R WCI  23
WINNER         CLOUDY    46  41  82 NW17G29   30.18R
$$

SDZ004>011-016>023-039-040-241400-
NORTHEAST SOUTH DAKOTA

CITY           SKY/WX    TMP DP  RH WIND       PRES   REMARKS
ABERDEEN       LGT RAIN  42  38  85 N25G31    30.32R
WATERTOWN      CLOUDY    44  37  76 N25G36    30.21R
BROOKINGS      CLOUDY    47  38  71 N10       30.20R
SISSETON         N/A     44  39  82 N22       30.30R
$$

SDZ017-020-022-023-036>040-048>070-241400-
SOUTHEAST SOUTH DAKOTA

CITY           SKY/WX    TMP DP  RH WIND       PRES   REMARKS
SIOUX FALLS    CLOUDY    48  41  76 CALM      30.17R
HURON          LGT RAIN  46  42  86 NE17G24   30.21R FOG
CHAMBERLAIN    CLOUDY    49  48  99 CALM      30.17R
MITCHELL       LGT RAIN  50  46  86 NE8       30.18R
YANKTON        MOSUNNY   48  43  82 CALM      30.16R
$$

ABBREVIATIONS USED IN REMARKS
   TC - TEMPERATURE IN CELSIUS
  WCI - WIND CHILL INDEX
   HX - HEAT INDEX
  VSB - VISIBILITY





USA.gov is the U.S. government's official web portal to all federal, state and local government web resources and services.